[[{"header":{"parameterUnit":"m.s-1","parameterCategory":1,"la1":30.2991,"la2":30.254,"lo1":-89.0895,"lo2":-89.0444,"dy":0.0017,"dx":0.0017,"nx":28,"ny":28,"refTime":"2024-02-24T09:00:00:Z","depth":0,"parameterNumber":2,"parameterNumberName":"U-component_of_WINDS"},"data":[0,0,0,0,0,0,0,0,0,0,0,0,0,0,0,0,0,0,0,0,0,0,0,0,0,0,0,0,0,0,0,0,0,0,0,0,0,0,0,0,0,0,0,0,0,0,0,0,0,0,0,0,0,0,0,0,0,0,0.7307,0.7307,0,0.7328,0.7328,0.7328,0.7314,0.7313,0.7313,0.7312,0.7334,0.7335,0.7337,0,0,0,0,0,0,0,0,0,0,0,0,0,0.7256,0.7257,0.7307,0.7307,0.7307,0.7328,0.7328,0.7328,0.7314,0.7313,0.7313,0.7312,0.7334,0.7335,0.7337,0,0,0,0,0,0,0,0,0,0,0,0,0,0.7278,0.7257,0.7307,0.7303,0.7302,0.7328,0.7328,0.7328,0.7314,0.7313,0.7312,0.7312,0.7333,0.7335,0.7337,0.7367,0,0,0.7342,0.7343,0,0,0,0,0,0,0,0,0.7276,0.7279,0.7303,0.7303,0.7303,0.7317,0.7318,0.7341,0.7315,0.731,0.7312,0.7311,0.7329,0.7332,0.7338,0.7368,0.7369,0.7343,0.7344,0.7344,0.7345,0,0,0,0,0,0,0,0.7275,0.7278,0.7315,0.7303,0.7303,0.73,0.7302,0.7323,0.7325,0.731,0.7309,0.7312,0.7329,0.7336,0.7338,0.737,0.7342,0.7344,0.7345,0.7346,0.7428,0.7429,0,0,0,0,0,0,0.7274,0.7277,0.7314,0.7316,0.7287,0.7302,0.7304,0.7314,0.7325,0.7325,0.7313,0.7311,0.7333,0.7336,0.7339,0.7376,0.7344,0.7346,0.7347,0.7427,0.7429,0.743,0,0,0,0,0,0,0.7273,0.7277,0.7313,0.7296,0.7301,0.7304,0.7315,0.7315,0.7321,0.7326,0.7327,0.7319,0.7333,0.7336,0.7361,0.7377,0.7347,0.7348,0.7426,0.7428,0.7429,0.7451,0,0,0,0,0,0,0.7271,0.7277,0.7288,0.7297,0.7302,0.7335,0.7316,0.7316,0.7324,0.7322,0.7332,0.7333,0.7332,0.7358,0.7362,0.7379,0.735,0.7424,0.7427,0.7429,0.7449,0.7453,0.7457,0,0,0,0,0,0.7269,0.7293,0.7288,0.7293,0.7316,0.7336,0.7338,0.7337,0.7326,0.7337,0.7341,0.7333,0.7374,0.7361,0.7366,0.7382,0.7423,0.7426,0.7428,0.7447,0.7452,0.7456,0,0,0,0,0,0,0.7285,0.7294,0.7289,0.7316,0.7325,0.7333,0.7347,0.7342,0.7355,0.7352,0.735,0.7352,0.7378,0.7383,0.7368,0.7413,0.7397,0.7401,0.7409,0.7415,0.7418,0.7417,0.7351,0,0,0,0,0,0.7292,0.7307,0.7314,0.7337,0.7342,0.7344,0.7353,0.7351,0.736,0.7364,0.7369,0.7379,0.7395,0.7405,0.7419,0.7449,0.7452,0.7463,0.7467,0.7471,0.7474,0.7492,0.7497,0.7438,0.7438,0.7438,0,0,0.7306,0.7313,0.7322,0.734,0.7347,0.7364,0.7347,0.7365,0.7378,0.7367,0.739,0.7395,0.7406,0.7434,0.7446,0.7438,0.7491,0.7474,0.7476,0.7478,0.7495,0.7501,0.7506,0.744,0.7439,0.7439,0,0,0.734,0.7346,0.7367,0.7374,0.7385,0.7387,0.7392,0.7401,0.7403,0.7427,0.742,0.7435,0.7461,0.747,0.7477,0.7517,0.751,0.7521,0.7542,0.756,0.7565,0.7569,0.7584,0.7589,0.7525,0.7525,0.7525,0,0.7356,0.738,0.7378,0.7397,0.7406,0.7397,0.7418,0.7426,0.7441,0.7448,0.7438,0.7472,0.7479,0.7509,0.7519,0.7525,0.7532,0.752,0.7564,0.7568,0.7572,0.7586,0.7592,0.7526,0.7526,0.7526,0.7526,0,0.74,0.7417,0.7432,0.7448,0.7458,0.7478,0.748,0.7491,0.7488,0.7491,0.7516,0.7524,0.7541,0.7548,0.7545,0.7578,0.7573,0.7564,0.7548,0.7579,0.7593,0.7598,0.7528,0.7527,0.7527,0.7527,0,0,0.7444,0.7458,0.7464,0.7472,0.7484,0.7497,0.7518,0.7534,0.7544,0.7555,0.7573,0.7596,0.7588,0.7597,0.7595,0.7611,0.7643,0.76,0.76,0.7608,0.7682,0.7689,0.7695,0.7639,0.764,0.7641,0.7681,0,0.7479,0.7514,0.7513,0.7546,0.7563,0.7556,0.7573,0.7583,0.7587,0.7602,0.7606,0.7623,0.761,0.7616,0.7631,0.7636,0.7658,0.7633,0.7656,0.7657,0.7654,0.7702,0.7709,0.7747,0.7686,0.7687,0.7688,0,0.7525,0.7538,0.7573,0.7584,0.7591,0.7607,0.7622,0.7636,0.7648,0.765,0.7661,0.7657,0.7679,0.7662,0.7693,0.7676,0.7685,0.7689,0.7691,0.7693,0.7674,0.7706,0.7759,0.7765,0.7696,0.7695,0.7694,0,0.7554,0.7581,0.7605,0.7612,0.7625,0.7637,0.7643,0.7654,0.7664,0.7678,0.7685,0.7701,0.771,0.7723,0.7725,0.7712,0.7756,0.7739,0.7759,0.7759,0.7769,0.7768,0.7824,0.7774,0.7774,0.7774,0.7774,0,0.7594,0.7616,0.7619,0.7634,0.7659,0.7658,0.7683,0.7688,0.7698,0.7715,0.7709,0.7725,0.7726,0.7743,0.7744,0.777,0.7774,0.7777,0.7777,0.7777,0.7777,0.7784,0.7782,0.7775,0.7775,0.7775,0.7774,0,0.7631,0.7634,0.7661,0.7672,0.7675,0.7693,0.7703,0.7718,0.7721,0.7742,0.7747,0.7753,0.7773,0.7775,0.7798,0.7799,0.7831,0.7828,0.7827,0.7826,0.7847,0.7845,0.7909,0.7918,0.7861,0.7862,0.7862,0,0.7657,0.7674,0.7687,0.7698,0.7704,0.7722,0.7733,0.7733,0.7745,0.776,0.7774,0.7793,0.7808,0.784,0.7846,0.7864,0.7862,0.7884,0.7865,0.7865,0.7864,0.7863,0.7865,0.7887,0.7888,0.7888,0.7889,0,0.7702,0.7703,0.7719,0.7735,0.7749,0.7762,0.7774,0.7784,0.7786,0.78,0.7819,0.7831,0.7855,0.7875,0.7893,0.79,0.7895,0.7895,0.79,0.7901,0.79,0.7902,0.7837,0.7893,0.7893,0.7892,0.7892,0.7892,0.7735,0.775,0.7762,0.778,0.779,0.7802,0.7817,0.7823,0.7839,0.7859,0.7858,0.788,0.7893,0.7917,0.7925,0.7944,0.7937,0.7945,0.7947,0.7949,0.7951,0.7897,0.7947,0.7947,0.7946,0.7946,0.7946,0,0.778,0.7788,0.7805,0.7823,0.7837,0.7832,0.7846,0.7859,0.7878,0.7891,0.7906,0.793,0.7949,0.7958,0.7977,0.799,0.7988,0.7995,0.7994,0.7996,0.7956,0.7949,0.7996,0.7996,0.7996,0.7996,0.7996,0.7996,0.7806,0.7832,0.7834,0.7865,0.7873,0.7895,0.7903,0.7915,0.7925,0.7952,0.7968,0.7973,0.7985,0.8005,0.8023,0.8025,0.8033,0.804,0.8042,0.8004,0.7999,0.7994,0.7988,0.8042,0.8042,0.8081,0.8081,0.8081]},{"header":{"parameterUnit":"m.s-1","parameterCategory":1,"la1":30.2991,"la2":30.254,"lo1":-89.0895,"lo2":-89.0444,"dy":0.0017,"dx":0.0017,"nx":28,"ny":28,"refTime":"2024-02-24T09:00:00:Z","depth":0,"parameterNumber":3,"parameterNumberName":"V-component_of_WINDS"},"data":[0,0,0,0,0,0,0,0,0,0,0,0,0,0,0,0,0,0,0,0,0,0,0,0,0,0,0,0,0,0,0,0,0,0,0,0,0,0,0,0,0,0,0,0,0,0,0,0,0,0,0,0,0,0,0,0,0,0,-2.3183,-2.3184,0,-2.3281,-2.3283,-2.3284,-2.3305,-2.3304,-2.3304,-2.3303,-2.3403,-2.3406,-2.341,0,0,0,0,0,0,0,0,0,0,0,0,0,-2.3013,-2.3016,-2.3183,-2.3184,-2.3185,-2.3281,-2.3283,-2.3284,-2.3305,-2.3304,-2.3303,-2.3303,-2.3402,-2.3406,-2.341,0,0,0,0,0,0,0,0,0,0,0,0,0,-2.3096,-2.3017,-2.3182,-2.3207,-2.321,-2.3281,-2.3283,-2.3284,-2.3305,-2.3304,-2.3303,-2.3302,-2.3401,-2.3405,-2.341,-2.3463,0,0,-2.3426,-2.3428,0,0,0,0,0,0,0,0,-2.3092,-2.3103,-2.3202,-2.3206,-2.3209,-2.328,-2.3259,-2.3344,-2.3306,-2.3269,-2.3303,-2.3302,-2.3363,-2.3371,-2.3392,-2.3467,-2.3472,-2.3426,-2.3429,-2.3431,-2.3433,0,0,0,0,0,0,0,-2.3086,-2.3099,-2.3222,-2.3204,-2.3208,-2.3214,-2.3224,-2.3276,-2.3321,-2.3272,-2.3274,-2.3286,-2.3365,-2.3387,-2.3394,-2.3473,-2.3426,-2.343,-2.3433,-2.3435,-2.3598,-2.36,0,0,0,0,0,0,-2.3076,-2.3094,-2.3219,-2.3225,-2.3147,-2.3218,-2.323,-2.3258,-2.332,-2.3329,-2.3286,-2.3286,-2.3379,-2.3388,-2.3398,-2.3464,-2.3431,-2.3436,-2.3439,-2.3597,-2.3599,-2.36,0,0,0,0,0,0,-2.3072,-2.3087,-2.3215,-2.316,-2.3176,-2.3222,-2.3254,-2.3261,-2.3283,-2.3331,-2.3339,-2.3301,-2.3378,-2.3391,-2.3447,-2.3468,-2.3438,-2.3443,-2.3596,-2.3598,-2.3599,-2.3596,0,0,0,0,0,0,-2.3067,-2.3085,-2.3105,-2.316,-2.3179,-2.3262,-2.3255,-2.3263,-2.3292,-2.3292,-2.3347,-2.3355,-2.3378,-2.3439,-2.3452,-2.3474,-2.3447,-2.3594,-2.3596,-2.3599,-2.3595,-2.3598,-2.3601,0,0,0,0,0,-2.3061,-2.31,-2.3106,-2.3121,-2.3205,-2.3263,-2.3274,-2.3301,-2.3293,-2.3314,-2.3345,-2.3353,-2.3464,-2.3445,-2.3459,-2.3483,-2.3593,-2.3596,-2.3599,-2.3593,-2.3597,-2.3601,0,0,0,0,0,0,-2.3046,-2.3107,-2.3115,-2.3173,-2.3213,-2.3266,-2.3293,-2.3304,-2.3346,-2.3345,-2.3376,-2.3388,-2.3443,-2.3469,-2.3447,-2.3538,-2.3528,-2.3534,-2.3519,-2.3523,-2.3526,-2.3518,-2.3451,0,0,0,0,0,-2.3049,-2.3091,-2.3143,-2.3189,-2.3208,-2.3248,-2.3274,-2.3291,-2.3333,-2.335,-2.3385,-2.3425,-2.347,-2.3498,-2.3541,-2.3599,-2.3611,-2.3623,-2.3626,-2.3628,-2.3632,-2.3666,-2.3672,-2.361,-2.361,-2.361,0,0,-2.3057,-2.3096,-2.312,-2.3187,-2.322,-2.3262,-2.3261,-2.3306,-2.3338,-2.3357,-2.3412,-2.3439,-2.3487,-2.3544,-2.3571,-2.3567,-2.3653,-2.3632,-2.3633,-2.3637,-2.367,-2.3676,-2.3681,-2.3612,-2.3612,-2.3611,0,0,-2.3092,-2.3126,-2.3168,-2.3202,-2.3252,-2.3278,-2.3288,-2.3341,-2.336,-2.3416,-2.3431,-2.347,-2.3545,-2.3578,-2.3605,-2.3655,-2.3664,-2.3668,-2.3684,-2.3716,-2.3721,-2.3726,-2.3744,-2.375,-2.3673,-2.3673,-2.3673,0,-2.3095,-2.316,-2.3189,-2.3234,-2.3263,-2.3283,-2.3326,-2.3357,-2.3418,-2.3438,-2.3433,-2.3529,-2.3562,-2.3628,-2.3641,-2.3662,-2.3675,-2.3662,-2.3718,-2.3723,-2.3728,-2.3745,-2.3752,-2.3673,-2.3673,-2.3673,-2.3673,0,-2.3161,-2.3206,-2.3235,-2.3294,-2.3327,-2.3371,-2.3407,-2.3436,-2.3452,-2.3478,-2.3536,-2.3577,-2.3629,-2.3646,-2.3661,-2.3715,-2.3711,-2.3712,-2.3702,-2.3733,-2.3751,-2.3758,-2.3673,-2.3673,-2.3673,-2.3673,0,0,-2.3189,-2.3265,-2.3275,-2.3303,-2.336,-2.3396,-2.3441,-2.3493,-2.3518,-2.356,-2.3599,-2.3663,-2.3664,-2.3695,-2.3714,-2.3742,-2.3781,-2.374,-2.3741,-2.3746,-2.3844,-2.3843,-2.385,-2.3787,-2.3789,-2.379,-2.384,0,-2.3231,-2.3313,-2.3341,-2.3409,-2.3451,-2.3471,-2.3511,-2.3551,-2.3577,-2.3617,-2.3646,-2.3692,-2.369,-2.3709,-2.3738,-2.377,-2.3801,-2.3766,-2.3824,-2.3826,-2.3811,-2.3859,-2.3858,-2.3903,-2.3847,-2.3848,-2.3849,0,-2.3292,-2.3336,-2.3408,-2.3461,-2.348,-2.3515,-2.3565,-2.3603,-2.3649,-2.3667,-2.3702,-2.3719,-2.3768,-2.3756,-2.3824,-2.38,-2.3825,-2.3845,-2.3847,-2.3853,-2.3839,-2.3867,-2.3918,-2.3925,-2.386,-2.3859,-2.3858,0,-2.3305,-2.3382,-2.3435,-2.3459,-2.3522,-2.3547,-2.3574,-2.3619,-2.3649,-2.3693,-2.3713,-2.3762,-2.3789,-2.3827,-2.3857,-2.3845,-2.3923,-2.3913,-2.3939,-2.3938,-2.3954,-2.3952,-2.401,-2.397,-2.397,-2.397,-2.397,0,-2.335,-2.3393,-2.3443,-2.3475,-2.3525,-2.3557,-2.3605,-2.3634,-2.3674,-2.3713,-2.3734,-2.377,-2.3808,-2.3849,-2.3873,-2.3927,-2.3938,-2.3954,-2.396,-2.3952,-2.395,-2.3969,-2.3967,-2.3972,-2.3971,-2.3971,-2.397,0,-2.3372,-2.3407,-2.3467,-2.3523,-2.3538,-2.3572,-2.362,-2.3653,-2.3681,-2.373,-2.3744,-2.3788,-2.3838,-2.3872,-2.3936,-2.3952,-2.401,-2.4015,-2.3994,-2.3997,-2.4021,-2.4019,-2.4093,-2.4105,-2.4057,-2.4057,-2.4057,0,-2.3398,-2.3433,-2.3492,-2.352,-2.3548,-2.3593,-2.3624,-2.3657,-2.3688,-2.3744,-2.3771,-2.3822,-2.3865,-2.3944,-2.3982,-2.4031,-2.4038,-2.4061,-2.4046,-2.4037,-2.4039,-2.4037,-2.4041,-2.4063,-2.4063,-2.4064,-2.4064,0,-2.3441,-2.3457,-2.3501,-2.3552,-2.3588,-2.3629,-2.367,-2.3692,-2.3733,-2.3767,-2.3819,-2.3853,-2.3919,-2.397,-2.4023,-2.4052,-2.4065,-2.4069,-2.4077,-2.407,-2.4057,-2.4065,-2.4001,-2.4067,-2.4066,-2.4066,-2.4066,-2.4066,-2.3467,-2.3499,-2.3546,-2.3595,-2.3629,-2.3668,-2.3702,-2.3735,-2.3779,-2.3835,-2.3853,-2.3907,-2.3953,-2.4026,-2.4056,-2.4099,-2.4097,-2.4109,-2.4113,-2.4115,-2.4115,-2.405,-2.4109,-2.4109,-2.4109,-2.4109,-2.4109,0,-2.3511,-2.3543,-2.3587,-2.3645,-2.3684,-2.3693,-2.374,-2.3772,-2.3819,-2.3861,-2.3904,-2.3964,-2.4014,-2.4056,-2.4108,-2.4135,-2.4142,-2.4147,-2.4146,-2.4152,-2.4114,-2.4101,-2.4141,-2.4141,-2.4141,-2.4141,-2.4141,-2.4141,-2.3538,-2.3593,-2.3615,-2.3687,-2.3719,-2.3772,-2.3798,-2.3834,-2.3868,-2.3935,-2.3977,-2.4004,-2.4047,-2.4103,-2.4149,-2.4161,-2.4179,-2.4183,-2.4195,-2.4159,-2.4155,-2.4151,-2.414,-2.4186,-2.4187,-2.4231,-2.4231,-2.4231]}]]